[[{"header":{"parameterUnit":"m.s-1","parameterCategory":1,"la1":30.2991,"la2":30.254,"lo1":-89.0895,"lo2":-89.0444,"dy":0.0017,"dx":0.0017,"nx":28,"ny":28,"refTime":"2025-01-08T03:00:00:Z","depth":0,"parameterNumber":2,"parameterNumberName":"U-component_of_WINDS"},"data":[0,0,0,0,0,0,0,0,0,0,0,0,0,0,0,0,0,0,0,0,0,0,0,0,0,0,0,0,0,0,0,0,0,0,0,0,0,0,0,0,0,0,0,0,0,0,0,0,0,0,0,0,0,0,0,0,0,0,-2.2345,-2.2346,0,-2.2405,-2.2406,-2.2407,-2.2315,-2.2312,-2.2309,-2.2306,-2.237,-2.2375,-2.2379,0,0,0,0,0,0,0,0,0,0,0,0,0,-2.2152,-2.2156,-2.2345,-2.2346,-2.2347,-2.2405,-2.2406,-2.2407,-2.2316,-2.2312,-2.2308,-2.2304,-2.2368,-2.2374,-2.238,0,0,0,0,0,0,0,0,0,0,0,0,0,-2.2227,-2.2157,-2.2345,-2.2308,-2.2305,-2.2405,-2.2406,-2.2407,-2.2317,-2.2312,-2.2307,-2.2302,-2.2367,-2.2373,-2.238,-2.252,0,0,-2.2402,-2.2405,0,0,0,0,0,0,0,0,-2.2223,-2.2234,-2.2313,-2.2311,-2.2308,-2.2348,-2.2361,-2.2445,-2.2318,-2.2312,-2.2306,-2.23,-2.2367,-2.2373,-2.2395,-2.2523,-2.2525,-2.2403,-2.2407,-2.241,-2.2412,0,0,0,0,0,0,0,-2.2217,-2.2231,-2.2369,-2.2314,-2.2311,-2.2289,-2.2294,-2.2377,-2.2366,-2.2313,-2.2306,-2.2314,-2.2364,-2.2389,-2.2396,-2.2526,-2.2402,-2.2409,-2.2413,-2.2416,-2.2769,-2.2774,0,0,0,0,0,0,-2.2217,-2.2227,-2.2367,-2.2371,-2.2252,-2.2296,-2.2302,-2.234,-2.2365,-2.2364,-2.2318,-2.231,-2.2379,-2.2388,-2.2398,-2.2562,-2.241,-2.2416,-2.242,-2.2764,-2.2771,-2.2776,0,0,0,0,0,0,-2.2213,-2.223,-2.2365,-2.2297,-2.2313,-2.2305,-2.2348,-2.2344,-2.2368,-2.2369,-2.2367,-2.2345,-2.2376,-2.2388,-2.249,-2.2563,-2.2419,-2.2426,-2.2758,-2.2766,-2.2773,-2.2892,0,0,0,0,0,0,-2.2208,-2.2229,-2.2282,-2.2299,-2.2317,-2.2456,-2.2352,-2.2348,-2.238,-2.2369,-2.2393,-2.2393,-2.2373,-2.248,-2.2497,-2.257,-2.2431,-2.2752,-2.2762,-2.2771,-2.2881,-2.2903,-2.2921,0,0,0,0,0,-2.2201,-2.2314,-2.2285,-2.2303,-2.2382,-2.246,-2.247,-2.2444,-2.2386,-2.2439,-2.244,-2.2392,-2.2552,-2.2491,-2.2509,-2.2586,-2.2747,-2.2759,-2.277,-2.2873,-2.2899,-2.2921,0,0,0,0,0,0,-2.2307,-2.2315,-2.2284,-2.2405,-2.2432,-2.2444,-2.2511,-2.2472,-2.2517,-2.2506,-2.2472,-2.2478,-2.2587,-2.2596,-2.2528,-2.2721,-2.264,-2.2656,-2.2711,-2.2736,-2.2755,-2.2751,-2.2437,0,0,0,0,0,-2.2344,-2.2406,-2.241,-2.2517,-2.2532,-2.2519,-2.2552,-2.2529,-2.2556,-2.2568,-2.2575,-2.2604,-2.266,-2.2699,-2.2751,-2.2882,-2.2885,-2.2943,-2.2963,-2.2979,-2.2994,-2.3063,-2.3089,-2.2814,-2.2814,-2.2814,0,0,-2.2423,-2.2435,-2.2476,-2.2539,-2.2557,-2.2622,-2.253,-2.2603,-2.265,-2.2579,-2.2675,-2.2682,-2.2711,-2.2828,-2.288,-2.2839,-2.307,-2.2994,-2.3007,-2.3013,-2.3078,-2.3104,-2.3127,-2.2822,-2.2821,-2.282,0,0,-2.2598,-2.2614,-2.2704,-2.2724,-2.2752,-2.2742,-2.2764,-2.2781,-2.2783,-2.2878,-2.2825,-2.2882,-2.298,-2.3003,-2.3027,-2.3209,-2.3167,-2.3227,-2.3331,-2.3399,-2.342,-2.3439,-2.3504,-2.3528,-2.3241,-2.3242,-2.3242,0,-2.2693,-2.2788,-2.2756,-2.2832,-2.2861,-2.2797,-2.2888,-2.2909,-2.2954,-2.2975,-2.2928,-2.3049,-2.3064,-2.3185,-2.3229,-2.3251,-2.3275,-2.3225,-2.342,-2.3438,-2.3456,-2.3517,-2.3542,-2.3249,-2.3248,-2.3247,-2.3246,0,-2.2902,-2.2969,-2.3038,-2.3081,-2.3117,-2.3201,-2.3181,-2.3222,-2.3196,-2.3191,-2.3288,-2.3304,-2.3358,-2.3384,-2.336,-2.3501,-2.3475,-2.3425,-2.3343,-2.3489,-2.3546,-2.357,-2.3259,-2.3256,-2.3254,-2.3252,0,0,-2.3148,-2.3171,-2.3197,-2.3215,-2.324,-2.3292,-2.3371,-2.3423,-2.3458,-2.349,-2.3557,-2.364,-2.3593,-2.3621,-2.3598,-2.3657,-2.38,-2.3599,-2.3599,-2.3636,-2.3956,-2.3994,-2.4022,-2.3771,-2.3775,-2.3779,-2.3953,0,-2.3323,-2.3461,-2.3433,-2.3568,-2.3629,-2.3568,-2.3638,-2.3661,-2.3658,-2.3709,-2.3706,-2.3765,-2.3699,-2.3715,-2.3771,-2.3771,-2.3863,-2.3757,-2.3833,-2.3836,-2.3828,-2.4052,-2.4093,-2.4257,-2.3975,-2.3979,-2.3982,0,-2.3547,-2.3586,-2.3726,-2.374,-2.3765,-2.3828,-2.3872,-2.3921,-2.3946,-2.394,-2.397,-2.3935,-2.4014,-2.393,-2.4038,-2.3967,-2.3995,-2.4,-2.4005,-2.4012,-2.3919,-2.4065,-2.4309,-2.4333,-2.4017,-2.4014,-2.4012,0,-2.3712,-2.38,-2.3895,-2.3912,-2.3931,-2.3977,-2.3987,-2.4007,-2.4039,-2.4077,-2.4097,-2.4145,-2.4171,-2.4209,-2.4187,-2.4128,-2.43,-2.4214,-2.4297,-2.4297,-2.4337,-2.4335,-2.4589,-2.4355,-2.4354,-2.4354,-2.4353,0,-2.3911,-2.4,-2.3969,-2.4028,-2.4125,-2.4092,-2.4189,-2.4192,-2.4209,-2.4267,-2.4218,-2.4273,-2.4242,-2.4295,-2.4279,-2.4371,-2.4383,-2.438,-2.4375,-2.4385,-2.4385,-2.4404,-2.4392,-2.436,-2.4359,-2.4358,-2.4356,0,-2.4114,-2.4097,-2.4196,-2.4205,-2.421,-2.4281,-2.4288,-2.4343,-2.4335,-2.4409,-2.4424,-2.4413,-2.4473,-2.4454,-2.452,-2.4508,-2.4625,-2.4605,-2.4617,-2.4612,-2.4696,-2.4688,-2.4972,-2.5007,-2.475,-2.4752,-2.4754,0,-2.4242,-2.4309,-2.4324,-2.4359,-2.4372,-2.4429,-2.4461,-2.443,-2.4465,-2.4497,-2.4548,-2.4603,-2.4645,-2.4743,-2.4741,-2.479,-2.4771,-2.4866,-2.4778,-2.4786,-2.4772,-2.4769,-2.4775,-2.4885,-2.4888,-2.489,-2.4892,0,-2.4472,-2.446,-2.4507,-2.4552,-2.4591,-2.4625,-2.4654,-2.4685,-2.4656,-2.4698,-2.4758,-2.4791,-2.4856,-2.4911,-2.4955,-2.4965,-2.4925,-2.492,-2.4941,-2.4953,-2.4957,-2.4956,-2.4665,-2.4914,-2.4911,-2.491,-2.4909,-2.4908,-2.4641,-2.4697,-2.4716,-2.477,-2.4788,-2.4816,-2.4868,-2.4865,-2.4914,-2.4964,-2.4943,-2.5012,-2.5033,-2.5088,-2.5104,-2.5157,-2.512,-2.5152,-2.516,-2.5168,-2.5179,-2.4948,-2.5165,-2.5164,-2.5163,-2.5163,-2.5162,0,-2.4868,-2.4877,-2.4927,-2.4969,-2.5011,-2.4967,-2.4997,-2.5035,-2.5096,-2.5119,-2.5161,-2.5229,-2.5281,-2.5282,-2.5331,-2.5374,-2.5356,-2.5388,-2.5384,-2.5387,-2.5209,-2.5185,-2.5401,-2.5401,-2.5401,-2.5401,-2.5401,-2.5401,-2.4992,-2.5083,-2.5073,-2.5173,-2.518,-2.5247,-2.5267,-2.5293,-2.531,-2.5388,-2.5431,-2.5431,-2.5445,-2.5494,-2.554,-2.5539,-2.5559,-2.5598,-2.559,-2.5424,-2.54,-2.5378,-2.5355,-2.5603,-2.5603,-2.5764,-2.5765,-2.5766]},{"header":{"parameterUnit":"m.s-1","parameterCategory":1,"la1":30.2991,"la2":30.254,"lo1":-89.0895,"lo2":-89.0444,"dy":0.0017,"dx":0.0017,"nx":28,"ny":28,"refTime":"2025-01-08T03:00:00:Z","depth":0,"parameterNumber":3,"parameterNumberName":"V-component_of_WINDS"},"data":[0,0,0,0,0,0,0,0,0,0,0,0,0,0,0,0,0,0,0,0,0,0,0,0,0,0,0,0,0,0,0,0,0,0,0,0,0,0,0,0,0,0,0,0,0,0,0,0,0,0,0,0,0,0,0,0,0,0,-5.1569,-5.157,0,-5.1644,-5.1645,-5.1645,-5.1559,-5.1556,-5.1552,-5.1549,-5.1623,-5.1628,-5.1633,0,0,0,0,0,0,0,0,0,0,0,0,0,-5.1347,-5.1351,-5.1569,-5.157,-5.1571,-5.1644,-5.1645,-5.1646,-5.1559,-5.1555,-5.1552,-5.1548,-5.1621,-5.1627,-5.1633,0,0,0,0,0,0,0,0,0,0,0,0,0,-5.1434,-5.1353,-5.1569,-5.1537,-5.1535,-5.1643,-5.1645,-5.1646,-5.156,-5.1555,-5.155,-5.1546,-5.1619,-5.1626,-5.1634,-5.1777,0,0,-5.1657,-5.166,0,0,0,0,0,0,0,0,-5.143,-5.1443,-5.154,-5.1539,-5.1537,-5.1587,-5.1593,-5.169,-5.1561,-5.155,-5.1549,-5.1544,-5.1615,-5.1622,-5.1647,-5.1781,-5.1784,-5.1657,-5.1662,-5.1665,-5.1667,0,0,0,0,0,0,0,-5.1424,-5.1439,-5.1598,-5.1542,-5.154,-5.1517,-5.1524,-5.1611,-5.1609,-5.1551,-5.1545,-5.1555,-5.1613,-5.164,-5.1648,-5.1785,-5.1657,-5.1664,-5.1668,-5.1671,-5.2037,-5.2042,0,0,0,0,0,0,-5.1422,-5.1435,-5.1596,-5.1601,-5.147,-5.1525,-5.1533,-5.1576,-5.1608,-5.1608,-5.1559,-5.1551,-5.1629,-5.1639,-5.165,-5.1818,-5.1665,-5.1672,-5.1676,-5.2032,-5.2038,-5.2044,0,0,0,0,0,0,-5.1417,-5.1437,-5.1593,-5.1516,-5.1534,-5.1534,-5.1583,-5.158,-5.1607,-5.1614,-5.1612,-5.1588,-5.1626,-5.164,-5.1746,-5.1819,-5.1675,-5.1682,-5.2025,-5.2033,-5.2041,-5.2157,0,0,0,0,0,0,-5.1411,-5.1436,-5.1492,-5.1518,-5.1539,-5.1689,-5.1587,-5.1585,-5.162,-5.161,-5.164,-5.164,-5.1623,-5.1735,-5.1753,-5.1827,-5.1688,-5.2019,-5.2029,-5.2038,-5.2146,-5.2168,-5.2186,0,0,0,0,0,-5.1404,-5.1521,-5.1495,-5.1515,-5.1609,-5.1694,-5.1705,-5.1684,-5.1627,-5.1682,-5.1686,-5.1639,-5.1809,-5.1747,-5.1766,-5.1844,-5.2014,-5.2026,-5.2037,-5.2137,-5.2163,-5.2185,0,0,0,0,0,0,-5.1503,-5.1524,-5.1495,-5.1625,-5.1659,-5.1679,-5.1748,-5.1713,-5.1762,-5.175,-5.1721,-5.1728,-5.1841,-5.1853,-5.1783,-5.1982,-5.1902,-5.1918,-5.1971,-5.1996,-5.2015,-5.2009,-5.1694,0,0,0,0,0,-5.1541,-5.161,-5.1623,-5.1737,-5.1755,-5.1749,-5.1785,-5.1766,-5.1799,-5.1812,-5.1824,-5.1856,-5.1916,-5.1957,-5.2012,-5.2147,-5.2151,-5.221,-5.223,-5.2246,-5.226,-5.233,-5.2356,-5.2082,-5.2082,-5.2082,0,0,-5.1618,-5.1638,-5.1683,-5.1757,-5.178,-5.1851,-5.1761,-5.184,-5.1891,-5.1823,-5.1924,-5.1934,-5.1968,-5.2089,-5.2143,-5.2102,-5.2337,-5.2261,-5.2274,-5.2279,-5.2345,-5.2371,-5.2394,-5.209,-5.2089,-5.2087,0,0,-5.1795,-5.1818,-5.1913,-5.1938,-5.1975,-5.197,-5.1993,-5.2019,-5.2023,-5.2124,-5.2074,-5.2133,-5.2238,-5.2264,-5.2291,-5.2475,-5.2433,-5.2494,-5.2597,-5.2665,-5.2687,-5.2706,-5.277,-5.2793,-5.2508,-5.2508,-5.2509,0,-5.1886,-5.1991,-5.1967,-5.2049,-5.2082,-5.2024,-5.2119,-5.2145,-5.2198,-5.2221,-5.2175,-5.2304,-5.2323,-5.2448,-5.2493,-5.2517,-5.254,-5.249,-5.2686,-5.2705,-5.2722,-5.2782,-5.2807,-5.2515,-5.2515,-5.2514,-5.2513,0,-5.21,-5.2174,-5.2247,-5.2299,-5.234,-5.2429,-5.2416,-5.246,-5.2437,-5.2436,-5.2538,-5.2559,-5.2617,-5.2645,-5.2623,-5.2766,-5.274,-5.2691,-5.2609,-5.2755,-5.2812,-5.2835,-5.2525,-5.2523,-5.2521,-5.2519,0,0,-5.2343,-5.238,-5.2407,-5.2429,-5.2465,-5.252,-5.2605,-5.2662,-5.27,-5.2737,-5.2806,-5.2895,-5.285,-5.288,-5.286,-5.292,-5.3062,-5.2863,-5.2863,-5.2898,-5.3219,-5.3255,-5.3283,-5.3035,-5.304,-5.3043,-5.3216,0,-5.2519,-5.2667,-5.2646,-5.2787,-5.2854,-5.2799,-5.2872,-5.2901,-5.2902,-5.2957,-5.2957,-5.302,-5.2956,-5.2973,-5.3031,-5.3033,-5.3126,-5.302,-5.3097,-5.31,-5.309,-5.3312,-5.3351,-5.3514,-5.3238,-5.3242,-5.3244,0,-5.2744,-5.279,-5.2939,-5.2961,-5.2988,-5.3055,-5.3105,-5.3159,-5.3189,-5.3185,-5.3219,-5.3187,-5.3269,-5.3186,-5.3298,-5.3227,-5.3256,-5.3262,-5.3268,-5.3273,-5.3181,-5.3323,-5.3565,-5.3589,-5.3279,-5.3276,-5.3274,0,-5.2904,-5.3003,-5.3104,-5.3125,-5.3155,-5.3202,-5.3217,-5.3242,-5.3278,-5.332,-5.3342,-5.3394,-5.3423,-5.3463,-5.3445,-5.3387,-5.356,-5.3475,-5.3557,-5.3558,-5.3596,-5.3593,-5.3845,-5.3617,-5.3617,-5.3616,-5.3616,0,-5.3102,-5.3195,-5.3176,-5.3238,-5.3339,-5.3314,-5.3414,-5.3421,-5.3444,-5.3505,-5.3461,-5.3519,-5.3492,-5.3548,-5.3535,-5.3628,-5.3641,-5.3639,-5.3634,-5.3643,-5.3643,-5.3662,-5.3649,-5.3623,-5.3621,-5.362,-5.3619,0,-5.3298,-5.329,-5.3396,-5.3415,-5.3422,-5.3495,-5.3511,-5.3568,-5.3565,-5.3642,-5.3659,-5.3654,-5.3717,-5.3703,-5.3772,-5.3763,-5.388,-5.3862,-5.387,-5.3866,-5.3947,-5.394,-5.4219,-5.4253,-5.4005,-5.4007,-5.4009,0,-5.3425,-5.3495,-5.3521,-5.3559,-5.3577,-5.3639,-5.3674,-5.3651,-5.3689,-5.3728,-5.378,-5.3839,-5.3885,-5.3987,-5.3989,-5.4041,-5.4023,-5.4117,-5.403,-5.4036,-5.4022,-5.4018,-5.4024,-5.4134,-5.4137,-5.4139,-5.4141,0,-5.365,-5.3642,-5.3695,-5.3747,-5.379,-5.383,-5.3865,-5.3898,-5.3877,-5.3922,-5.3986,-5.4022,-5.4092,-5.415,-5.4198,-5.421,-5.4172,-5.4168,-5.419,-5.4198,-5.42,-5.4199,-5.3916,-5.4162,-5.416,-5.4158,-5.4157,-5.4156,-5.3814,-5.3872,-5.39,-5.396,-5.3984,-5.4017,-5.4071,-5.4075,-5.4128,-5.4183,-5.4166,-5.4239,-5.4264,-5.4324,-5.4343,-5.4398,-5.4362,-5.4394,-5.4401,-5.4409,-5.4419,-5.4192,-5.4406,-5.4406,-5.4405,-5.4405,-5.4404,0,-5.4035,-5.405,-5.4106,-5.4156,-5.4202,-5.4163,-5.4199,-5.424,-5.4305,-5.4333,-5.4379,-5.4451,-5.4507,-5.4512,-5.4565,-5.4607,-5.4591,-5.4622,-5.4618,-5.4621,-5.4448,-5.4424,-5.4634,-5.4634,-5.4634,-5.4634,-5.4634,-5.4634,-5.4156,-5.4252,-5.4247,-5.4354,-5.4367,-5.4438,-5.4462,-5.4492,-5.4514,-5.4597,-5.4643,-5.4647,-5.4665,-5.4718,-5.4766,-5.4766,-5.4787,-5.4824,-5.4818,-5.4656,-5.4633,-5.4611,-5.4588,-5.4829,-5.483,-5.4985,-5.4987,-5.4988]}]]